Regional Weather Roundup
Issued by NWS

Home | Current Version | Previous Version | Text Only | Print | Product List | Glossary Off
Versions: 1 2 3 4 5 6 7 8 9 10 11 12 13 14 15 16 17 18 19 20 21 22 23 24 25 26 27 28 29 30 31 32 33 34 35 36 37 38 39 40 41 42 43 44 45 46 47 48 49 50

000
ASUS43 KMPX 260010
RWRMN
WEATHER ROUNDUP FOR MINNESOTA
NATIONAL WEATHER SERVICE TWIN CITIES/CHANHASSEN MN
700 PM CDT TUE APR 25 2017


NOTE: "FAIR" INDICATES FEW OR NO CLOUDS BELOW 12,000 FEET WITH NO
SIGNIFICANT WEATHER AND/OR OBSTRUCTIONS TO VISIBILITY. N/A MEANS
CURRENT SKY AND/OR WEATHER CONDITIONS ARE NOT AVAILABLE.

MNZ060>063-068>070-260100-
   Twin Cities Metro

CITY           SKY/WX    TMP DP  RH WIND       PRES   REMARKS
TWIN CITIES    LGT RAIN  54  51  90 N3        29.57R FOG
6HR MIN TEMP:  53; 6HR MAX TEMP:  57; 6HR PCP:  0.16;

ST PAUL        LGT RAIN  55  53  93 CALM      29.57R FOG
CRYSTAL        LGT RAIN  54  50  86 NE3       29.56R FOG
BLAINE         LGT RAIN  55  55 100 CALM      29.57R FOG
LAKEVILLE      RAIN      50  50 100 N5        29.55S
EDEN PRAIRIE   RAIN      54  51  90 NW3       29.56R FOG
6HR MIN TEMP:  52; 6HR MAX TEMP:  55; 6HR PCP:  0.23;

SOUTH ST PAUL  LGT RAIN  54  53  95 CALM      29.56R
LAKE ELMO      DRIZZLE   54  54 100 CALM      29.57R
$$
MNZ001>005-007-008-013>017-022>024-027-028-260100-
   Northwest Minnesota

CITY           SKY/WX    TMP DP  RH WIND       PRES   REMARKS
BEMIDJI        CLOUDY    33  29  86 NE20G25   29.77R WCI  21
HALLOCK        CLOUDY    36  27  69 NE17G23   29.92R
ROSEAU         CLOUDY    34  27  75 NE17G25   29.91R WCI  23
WARROAD        CLOUDY    32  27  80 NE18G29   29.92R WCI  20
THIEF RVR FALL CLOUDY    32  27  81 NE20G26   29.86R WCI  20
CROOKSTON      CLOUDY    36  28  75 NE20G25   29.86R
FOSSTON        CLOUDY    34  30  86 N16       29.80R WCI  23
DETROIT LAKES  CLOUDY    37  32  81 N13G22    29.73F
MOORHEAD       CLOUDY    37  30  75 N23G29    29.77F
PARK RAPIDS    CLOUDY    38  30  73 N14G24    29.70S
MAHNOMEN       CLOUDY    35  31  84 NE22      29.76R WCI  23
$$
MNZ006-009>011-018-025>026-260100-
   North Central Minnesota

CITY           SKY/WX    TMP DP  RH WIND       PRES   REMARKS
BAUDETTE       CLOUDY    31  24  75 NE18G29   29.87R WCI  19
FLAG ISLAND    CLOUDY    32  25  74 NE16G26   29.93R WCI  21
INTL FALLS     CLOUDY    30  24  78 NE10G21   29.85S WCI  21
6HR MIN TEMP:  30; 6HR MAX TEMP:  32;

WASKISH        CLOUDY    32  27  80 NE16G24   29.83R WCI  21
BIG FORK       CLOUDY    30  28  93 N12       29.78S WCI  21
LONGVILLE      CLOUDY    36  32  87 N7G17     29.71S
GRAND RAPIDS   CLOUDY    35  31  85 N12G20    29.74S WCI  27
CRANE LAKE     CLOUDY    27  25  93 N9G21     29.84F WCI  17
ORR            CLOUDY    28  25  86 NE3       29.78R
COOK           CLOUDY    30  28  93 N9G16     29.77F WCI  22
WALKER         CLOUDY    34  30  86 NE13G21   29.74R WCI  25
$$
MNZ012-019>021-037-260100-
   Northeast Minnesota

CITY           SKY/WX    TMP DP  RH WIND       PRES   REMARKS
DULUTH         CLOUDY    41  40  96 E14       29.68R
6HR MIN TEMP:  41; 6HR MAX TEMP:  59; 6HR PCP:  0.02;

ELY            CLOUDY    32  30  93 N8        29.76R WCI  25
HIBBING        CLOUDY    34  32  92 N15       29.73R WCI  24
EVELETH        CLOUDY    37  34  88 NE13G18   29.74R
DULUTH HARBOR  LGT RAIN  39  37  93 NE15      29.70S
TWO HARBORS    LGT RAIN  43  37  81 E6        29.69R
SILVER BAY     LGT RAIN  45  41  87 N6        29.69R
GRAND MARAIS     N/A     40  33  76 N16G31    29.69R
G MARAIS ARPRT CLOUDY    30  27  86 N18G26    29.70R WCI  18
$$
MNZ029>031-032-039>041-046>048-054>057-064-260100-
   West Central Minnesota

CITY           SKY/WX    TMP DP  RH WIND       PRES   REMARKS
FERGUS FALLS   CLOUDY    39  34  81 N16       29.69S
WHEATON        CLOUDY    37  34  87 NW16G25   29.72R
MORRIS         CLOUDY    45  37  76 N18G24    29.64R
ALEXANDRIA     CLOUDY    42  36  79 NE14G24   29.65R
ELBOW LAKE     CLOUDY    40  36  83 N16G23    29.67S
WADENA         CLOUDY    37  34  87 N14       29.67S
GLENWOOD       CLOUDY    45  37  76 N16G23    29.62S
APPLETON       DRIZZLE   43  37  81 N16G25    29.64R
BENSON         CLOUDY    48  36  61 NE12      29.63S
ORTONVILLE     CLOUDY    37  34  87 N16G29    29.67R
MADISON        CLOUDY    43  39  87 N23       29.65R
WILLMAR        DRIZZLE   48  45  87 N12       29.60S
$$
MNZ033>034-036-042>043-049>051-058-059-260100-
   Central Minnesota

CITY           SKY/WX    TMP DP  RH WIND       PRES   REMARKS
ST CLOUD       RAIN      49  46  90 N9        29.58R
6HR MIN TEMP:  49; 6HR MAX TEMP:  63; 6HR PCP:  0.11;

SAUK CENTRE    FAIR      43  37  80 N14G22    29.62R
PAYNESVILLE    LGT RAIN  47  42  84 N9G16     29.60S
AITKIN         CLOUDY    45  36  70 N10G18    29.66R
PINE RIVER     CLOUDY    37  34  87 N17G24    29.72R
BRAINERD       CLOUDY    44  36  73 NE17G26   29.66R
STAPLES        CLOUDY    39  34  81 N10G18    29.66S
LONG PRAIRIE   CLOUDY    41  36  81 NW14G23   29.63S
LITTLE FALLS   LGT RAIN  45  37  76 N6        29.62R
LITCHFIELD     LGT RAIN  52  48  87 N9        29.59R
BUFFALO        RAIN      52  50  93 CALM      29.58S
MAPLE LAKE     RAIN      54  53  97 CALM      29.58S
HUTCHINSON     RAIN      53  52  97 NW7       29.58S
$$
MNZ037-044-045-052-053-260100-
   East Central Minnesota

CITY           SKY/WX    TMP DP  RH WIND       PRES   REMARKS
PRINCETON      RAIN      55  52  88 N6        29.59R
MORA           RAIN      45  41  87 NE7       29.63R
CAMBRIDGE      RAIN      55  46  71 N9        29.57R
RUSH CITY      LGT RAIN  49  45  84 N9G17     29.59S
MOOSE LAKE     CLOUDY    45  37  76 NE8       29.64S
HINCKLEY       LGT RAIN  46  43  87 N10       29.62R
CLOQUET        DRIZZLE   43  39  87 NE12      29.68R
MCGREGOR       CLOUDY    45  37  76 N14G23    29.68R
$$
MNZ071>073-080-081-089-090-097-098-260100-
   Southwest Minnesota

CITY           SKY/WX    TMP DP  RH WIND       PRES   REMARKS
MONTEVIDEO     LGT RAIN  43  39  87 N15       29.61R
GRANITE FALLS  CLOUDY    45  42  90 NW14      29.62R
CANBY          LGT RAIN  39  36  88 NW16G24   29.66R
MARSHALL       LGT RAIN  40  38  93 N21       29.62R
REDWOOD FALLS  LGT RAIN  46  43  89 NW8       29.57S
OLIVIA         DRIZZLE   50  46  87 NW10      29.57S
PIPESTONE      LGT RAIN  37  34  87 N12G18    29.62R
WINDOM         LGT RAIN  43  41  93 NW16      29.57S
WORTHINGTON    LGT RAIN  39  38  96 N16       29.60R FOG
JACKSON        DRIZZLE   41  41 100 NW13      29.58R
TRACY          RAIN      40  40  97 NW18      29.61R
SLAYTON        RAIN      38  37  98 N15       29.60R
$$
MNZ065>067-074>077-082>085-091>093-260100-
   South Central Minnesota

CITY           SKY/WX    TMP DP  RH WIND       PRES   REMARKS
MANKATO        RAIN      47  46  97 NW7       29.56R FOG
NEW ULM        LGT RAIN  48  46  93 N8        29.55F
ST JAMES       CLOUDY    45  45 100 NW14      29.56F
FAIRMONT       CLOUDY    44  43  96 N13       29.56R
GLENCOE        LGT RAIN  51  51 100 CALM      29.57S
FARIBAULT      LGT RAIN  50  48  93 N5        29.55R
OWATONNA       CLOUDY    52  48  87 NW8       29.54S FOG
WASECA         CLOUDY    46  45  93 NW9       29.56S
ALBERT LEA     RAIN      52  50  93 NW6       29.53R
$$
MNZ078>079-086>088-094>096-260100-
   Southeast Minnesota

CITY           SKY/WX    TMP DP  RH WIND       PRES   REMARKS
ROCHESTER      CLOUDY    53  52  96 NE12      29.52S
6HR MIN TEMP:  52; 6HR MAX TEMP:  63; 6HR PCP:  0.11;

RED WING       RAIN      55  52  88 E5        29.54S
STANTON        LGT RAIN  53  51  93 NE7       29.54R
DODGE CENTER   CLOUDY    52  52 100 NE7       29.52F FOG
WINONA         CLOUDY    59  54  82 CALM      29.52F
AUSTIN         LGT RAIN  54  52  94 NE7       29.49F
PRESTON        LGT RAIN  56  52  86 NE7       29.51S
$$
ABBREVIATIONS USED IN REMARKS
   TC - TEMPERATURES IN CELSIUS
  WCI - WIND CHILL INDEX
   HX - HEAT INDEX
  VSB - VISIBILITY
$$



USA.gov is the U.S. government's official web portal to all federal, state and local government web resources and services.